EWG4221 LCLK-EDDL

Flight info

Callsign EWG4221
Flight time N/A
Altitude 36000
Route PHA M31 GENOS DCT PEDER DCT EVENO DCT BENEM UN127 RIKSO DCT DISOR DCT LONTA UL608 DOLEV DCT RENKA DCT TESDU DCT AMETU T852 TINSA T854 DOMUX DOMUX1A
Aircraft A320/M-SDE3FGHIRWY/LB1

Departure

Time 2026-05-04 10:13
Airport Larnaca International Airport (LCLK)

Arrival

Time N/A
Airport Düsseldorf Airport (EDDL)
Time Latitude Longitude Altitude Speed Heading
2026-05-04 09:56 34.86941 33.61131 21 ft 0 kts 230°
2026-05-04 10:04 34.86941 33.61132 20 ft 1 kts 230°
2026-05-04 10:04 34.86957 33.61155 21 ft 4 kts 230°
2026-05-04 10:04 34.86973 33.61178 20 ft 2 kts 231°
2026-05-04 10:04 34.86990 33.61199 20 ft 4 kts 203°
2026-05-04 10:05 34.87015 33.61202 20 ft 4 kts 160°
2026-05-04 10:05 34.87038 33.61186 21 ft 4 kts 136°
2026-05-04 10:05 34.87042 33.61181 20 ft 0 kts 134°
2026-05-04 10:08 34.86995 33.61434 20 ft 15 kts 51°
2026-05-04 10:08 34.87069 33.61522 20 ft 14 kts 43°
2026-05-04 10:08 34.87144 33.61612 20 ft 17 kts 45°
2026-05-04 10:08 34.87238 33.61731 20 ft 22 kts 47°
2026-05-04 10:09 34.87352 33.61881 20 ft 26 kts 45°
2026-05-04 10:09 34.87489 33.62044 20 ft 28 kts 50°
2026-05-04 10:09 34.87544 33.62239 20 ft 24 kts 50°
2026-05-04 10:09 34.87662 33.62386 20 ft 25 kts 45°
2026-05-04 10:10 34.87786 33.62532 20 ft 25 kts 44°
2026-05-04 10:10 34.87906 33.62684 20 ft 25 kts 46°
2026-05-04 10:10 34.88028 33.62834 20 ft 25 kts 45°
2026-05-04 10:10 34.88152 33.62981 20 ft 25 kts 44°
2026-05-04 10:11 34.88260 33.63115 20 ft 21 kts 46°
2026-05-04 10:11 34.88363 33.63246 20 ft 22 kts 46°
2026-05-04 10:11 34.88433 33.63367 20 ft 14 kts 107°
2026-05-04 10:11 34.88384 33.63454 20 ft 11 kts 137°
2026-05-04 10:12 34.88330 33.63514 20 ft 10 kts 143°
2026-05-04 10:12 34.88277 33.63498 20 ft 4 kts 231°
2026-05-04 10:12 34.88173 33.63349 20 ft 62 kts 227°
2026-05-04 10:13 34.87680 33.62751 23 ft 136 kts 225°
2026-05-04 10:13 34.86881 33.61770 123 ft 182 kts 227°
2026-05-04 10:13 34.85949 33.60702 946 ft 182 kts 230°
2026-05-04 10:13 34.85077 33.59579 1743 ft 184 kts 232°
2026-05-04 10:14 34.84172 33.58374 2043 ft 203 kts 232°
2026-05-04 10:14 34.83163 33.57024 2299 ft 228 kts 231°
2026-05-04 10:16 34.75064 33.46577 7927 ft 250 kts 227°
2026-05-04 10:16 34.73858 33.45035 8687 ft 253 kts 227°
2026-05-04 10:16 34.72636 33.43471 9421 ft 257 kts 227°
2026-05-04 10:16 34.71395 33.41885 10125 ft 263 kts 227°
2026-05-04 10:17 34.70089 33.40195 10346 ft 285 kts 230°
2026-05-04 10:17 34.68947 33.38115 10599 ft 304 kts 244°
2026-05-04 10:19 34.68629 33.19382 15065 ft 329 kts 271°
2026-05-04 10:19 34.68738 33.16594 15657 ft 331 kts 271°
2026-05-04 10:19 34.68848 33.13792 16234 ft 334 kts 271°
2026-05-04 10:19 34.68960 33.10956 16808 ft 336 kts 271°
2026-05-04 10:20 34.69072 33.08115 17361 ft 339 kts 271°
2026-05-04 10:20 34.69185 33.05246 17903 ft 341 kts 271°
2026-05-04 10:20 34.69299 33.02361 18432 ft 343 kts 271°
2026-05-04 10:20 34.69412 32.99455 18940 ft 345 kts 271°
2026-05-04 10:21 34.69523 32.96537 19438 ft 348 kts 271°
2026-05-04 10:21 34.69632 32.93591 19917 ft 350 kts 271°
2026-05-04 10:21 34.69742 32.90624 20367 ft 352 kts 271°
2026-05-04 10:21 34.69852 32.87638 20831 ft 355 kts 271°
2026-05-04 10:22 34.70073 32.81610 21725 ft 360 kts 272°
2026-05-04 10:22 34.70184 32.78605 22158 ft 361 kts 271°
2026-05-04 10:22 34.70295 32.75544 22574 ft 364 kts 272°
2026-05-04 10:23 34.70406 32.72467 22955 ft 366 kts 272°
2026-05-04 10:23 34.70520 32.69361 23338 ft 369 kts 272°